RH
56 47 35 30 18 16 12 8 7 7 8 8 7 6 4 3 3 3 3 5 5 12 25 27 23 17 41 16 26 35 56 65 54 46 38 28 25 21 17 13 13 13 13 12 23
57 55 43 33 22 15 12 9 8 8 8 8 8 6 4 3 3 3 12 18 16 21 22 23 22 20 43 27 23 32 50 51 40 36 33 27 26 24 18 16 14 13 13 34 45
60 56 50 39 23 17 12 9 8 8 9 9 7 5 4 4 7 12 12 4 12 13 11 19 24 19 31 33 24 28 36 29 24 22 22 26 25 23 20 19 14 14 12 12 23
61 58 48 39 26 17 12 9 8 9 9 8 6 5 6 6 17 27 23 22 22 12 13 9 20 21 20 36 29 30 23 22 20 19 20 19 17 18 17 16 14 13 13 12 11
67 63 47 30 24 24 12 10 9 9 10 8 6 6 9 18 11 6 6 22 21 10 16 19 33 32 28 20 20 28 26 24 22 20 19 18 18 18 16 14 12 12 11 11 11
74 65 45 29 30 22 14 12 10 11 9 6 7 11 26 60 12 22 25 23 20 27 27 28 34 32 29 21 21 16 16 18 19 18 19 20 20 17 16 14 13 12 12 12 12
80 66 57 41 41 25 15 12 12 10 7 5 8 36 49 9 10 26 27 28 25 20 25 28 29 29 22 28 24 26 31 29 23 19 19 16 18 18 12 10 12 11 11 11 11
93 87 71 53 41 22 16 14 11 7 6 8 20 86 57 4 18 21 22 25 26 26 19 18 18 19 20 23 24 31 32 39 24 20 19 18 26 17 13 13 13 13 13 12 12
100 99 74 71 52 31 25 18 7 6 16 28 61 82 77 25 38 26 24 24 21 24 23 21 18 19 20 30 38 39 50 41 32 21 23 22 27 19 14 14 15 14 14 13 12
100 99 87 78 58 40 24 10 9 21 49 75 69 97 42 26 29 32 33 32 30 29 25 24 20 26 33 37 47 48 45 40 38 26 22 26 25 20 16 16 16 15 14 13 13
99 99 89 82 68 63 54 46 35 70 84 60 45 50 42 30 19 20 29 32 30 29 32 27 36 42 33 34 31 33 36 37 29 23 24 24 24 20 18 18 19 18 18 16 15
100 94 87 78 76 67 33 49 49 49 52 56 40 69 40 39 29 16 21 20 23 40 32 37 43 32 28 28 31 32 36 35 28 24 23 23 23 20 20 20 18 18 21 19 17
97 98 92 75 58 24 36 54 50 44 48 27 20 59 59 27 33 30 24 23 31 40 39 45 36 28 30 31 34 34 36 36 34 29 26 28 31 29 26 26 23 22 28 53 55
98 98 91 58 25 40 64 53 44 28 57 34 33 27 34 32 37 30 20 19 23 28 31 37 28 31 32 34 29 36 30 31 34 36 42 35 55 34 32 28 25 24 72 72 72
99 90 60 29 72 61 62 58 40 63 67 30 22 26 35 34 31 30 26 24 30 30 28 37 29 29 30 30 26 31 29 33 34 43 48 39 54 34 44 83 80 72 78 83 67
84 53 31 38 59 72 65 55 50 97 67 32 31 33 38 35 22 28 26 25 24 29 29 30 23 24 27 23 24 25 32 41 42 51 64 42 50 57 87 89 72 73 80 91 72
88 42 40 82 84 82 68 77 98 98 25 34 38 31 32 25 24 32 33 34 38 44 43 34 32 26 23 28 24 28 48 70 75 69 72 38 51 53 80 74 70 72 86 94 91
43 28 43 74 88 82 59 88 99 27 26 17 16 16 19 14 12 12 23 29 45 45 40 36 40 26 34 31 32 41 47 73 82 70 47 41 60 76 74 68 69 88 88 83 83
30 27 36 61 64 66 86 98 51 31 20 20 16 16 18 18 19 24 24 25 30 30 60 57 60 36 38 38 31 42 55 40 61 54 73 56 72 72 65 66 75 88 88 91 95
33 81 88 76 52 81 91 72 28 22 20 18 21 23 28 25 26 24 24 23 27 26 24 39 50 51 42 36 36 40 43 55 82 81 84 59 53 78 75 72 68 81 89 93 98
86 89 79 45 77 94 86 48 28 25 23 28 28 30 28 30 30 30 29 34 28 31 33 44 60 52 36 47 49 48 58 71 67 79 83 87 80 83 80 76 78 77 88 98 100
85 94 66 76 92 91 63 35 24 26 27 28 29 34 40 38 37 34 35 41 36 40 52 56 65 78 48 37 34 37 67 88 99 90 81 80 68 71 75 71 76 84 89 98 100
72 47 33 71 89 74 36 36 36 32 35 34 36 39 39 41 43 38 36 33 33 38 50 45 63 77 38 38 55 63 53 59 81 95 98 95 78 70 77 78 81 85 94 98 100
79 83 46 56 53 61 51 41 43 38 41 37 47 49 47 46 41 44 46 42 38 42 45 48 64 62 73 60 58 62 46 42 68 97 94 84 92 77 86 91 87 89 94 99 100
71 83 60 84 67 55 48 45 52 52 42 40 48 52 52 59 51 50 52 52 45 43 49 59 73 65 66 61 57 59 58 47 48 59 94 83 93 95 90 88 85 87 92 98 100
67 71 54 50 45 52 56 40 43 37 44 50 49 43 42 48 49 60 59 56 60 47 54 69 76 65 52 51 53 60 60 51 44 41 49 61 84 94 98 89 90 94 97 100 100
66 63 59 56 49 60 47 41 42 39 36 37 40 43 45 53 44 41 41 45 52 57 63 67 79 89 65 58 64 70 68 53 41 53 72 84 94 95 98 95 98 99 100 100 100
Wind_Speed
23 23 22 21 19 20 20 19 19 20 19 20 22 23 23 25 26 26 30 23 17 8 8 8 10 6 6 12 17 6 3 4 5 6 9 25 16 28 17 13 28 23 23 6 18
26 25 24 23 21 20 20 19 19 19 20 20 21 22 21 23 26 29 15 12 8 8 9 11 13 10 5 5 7 6 5 7 8 8 8 18 22 32 15 14 17 27 22 3 16
29 28 27 26 23 22 21 19 19 19 20 20 21 22 20 21 24 5 2 5 4 4 7 11 10 9 8 12 7 5 10 5 9 20 25 19 24 32 21 12 14 20 25 17 11
32 30 29 27 24 23 23 21 19 20 20 21 21 21 18 15 6 3 2 10 8 7 8 7 10 6 4 7 15 6 13 16 17 29 25 18 34 26 23 22 26 26 27 26 21
34 32 29 26 23 23 23 22 21 20 21 20 19 19 16 11 26 19 21 12 9 6 7 9 9 5 3 4 7 8 14 22 28 30 31 30 22 24 29 25 20 22 27 33 33
33 31 27 25 24 24 23 23 21 21 20 19 17 17 13 10 4 4 5 7 7 7 5 11 5 5 10 6 6 14 14 12 15 16 15 7 11 14 18 30 37 34 34 34 33
32 29 26 25 25 23 22 22 22 21 19 18 16 15 16 31 9 6 11 9 7 9 10 9 12 9 10 5 9 7 5 7 5 7 5 12 19 10 25 32 37 41 43 42 44
32 29 25 23 23 22 20 21 21 20 18 15 13 10 15 14 11 18 21 18 12 14 13 13 10 11 5 7 10 6 3 3 1 5 11 4 18 15 31 29 32 40 36 36 37
25 22 25 24 20 18 19 20 19 16 13 11 8 10 14 8 11 6 13 14 17 13 13 9 9 4 4 3 5 4 5 10 9 5 8 6 12 10 26 26 21 22 24 26 29
24 28 27 25 20 17 14 13 12 14 8 6 8 6 17 4 3 6 10 7 10 12 18 12 4 2 2 4 7 5 4 7 7 5 5 13 13 13 22 25 23 25 27 30 34
26 25 25 22 18 14 12 13 9 8 18 16 14 10 5 4 12 11 13 11 7 4 5 5 3 8 10 9 6 8 9 14 15 11 5 8 13 17 16 20 19 24 31 35 39
23 21 17 15 15 15 18 9 9 4 9 26 29 24 24 12 10 12 14 11 6 5 3 1 10 14 11 10 10 10 13 17 16 13 6 15 21 20 12 11 24 28 29 34 41
19 16 14 13 15 18 14 8 10 10 5 9 25 29 23 12 12 10 14 15 4 8 6 9 11 11 13 13 11 10 9 6 11 8 7 5 17 16 7 12 24 28 20 21 26
17 15 14 14 13 13 12 11 8 7 2 5 9 9 14 11 6 14 11 11 5 7 7 8 14 14 13 9 14 12 8 7 7 5 10 4 11 7 8 16 17 17 19 25 30
16 13 14 16 8 10 7 10 5 4 2 6 9 9 18 11 3 9 15 11 7 8 4 7 4 4 5 4 4 7 6 5 5 5 6 16 5 4 9 10 19 20 23 25 32
14 14 13 13 10 11 7 7 5 2 7 7 7 11 8 10 3 12 8 6 5 5 5 8 5 4 6 6 5 1 2 4 3 0 9 18 7 2 2 6 16 18 28 23 32
14 11 12 13 9 10 6 8 4 4 10 7 7 10 11 6 8 6 6 3 2 2 3 5 6 4 6 8 3 4 5 3 4 0 6 4 4 5 4 12 11 13 21 26 28
10 12 17 16 6 8 8 2 4 1 4 4 4 6 4 2 1 2 4 4 6 3 0 3 5 5 9 4 10 8 8 5 6 4 10 8 6 2 5 10 12 10 13 30 35
7 11 12 12 8 9 6 3 1 3 3 4 2 3 3 3 4 3 6 4 4 10 3 4 4 11 6 8 2 4 5 9 5 7 6 4 2 2 5 5 5 11 14 16 18
11 9 6 8 5 11 2 5 3 5 4 4 3 5 4 4 4 4 5 4 3 8 3 4 5 3 8 8 6 5 1 1 2 3 5 4 4 2 6 8 9 7 11 12 16
13 3 4 6 9 6 3 1 5 6 3 3 4 4 5 3 5 3 4 6 3 3 6 4 1 3 6 5 7 9 6 5 4 4 4 4 4 4 7 6 6 5 11 18 21
6 2 7 10 3 4 2 3 9 5 11 6 4 6 5 4 4 3 4 5 6 1 2 3 3 4 4 11 13 9 5 3 3 5 4 4 9 6 8 5 10 11 12 15 21
7 4 8 8 2 1 2 5 8 4 7 4 4 5 5 3 3 3 4 5 10 4 2 1 3 4 10 4 6 5 7 9 9 8 4 3 5 4 4 10 12 12 16 19 22
3 2 4 7 3 4 4 3 4 9 5 5 5 7 5 4 5 3 5 6 15 7 2 1 3 4 4 9 9 14 15 10 5 4 8 9 12 11 10 9 7 12 14 17 21
1 1 1 2 3 5 3 4 7 3 3 4 4 4 4 3 5 4 5 5 7 3 4 3 2 1 6 11 14 16 15 15 13 13 8 10 16 8 7 10 10 11 11 16 21
2 2 2 4 6 6 4 2 6 8 3 2 4 2 5 3 2 2 0 1 4 1 2 4 3 3 14 12 14 16 16 17 15 15 15 17 11 4 15 15 14 12 13 16 18
3 3 2 3 3 4 2 4 6 4 6 11 5 3 4 1 4 11 14 12 10 7 5 5 3 2 8 6 12 11 9 15 13 7 9 10 3 8 7 12 16 13 14 15 16
Wind_Direction
287 289 290 292 292 296 296 296 297 299 300 303 305 306 308 305 299 294 286 294 276 245 224 231 239 239 212 228 220 216 247 231 241 230 254 291 299 294 305 317 325 340 342 234 176
282 283 283 285 286 286 288 288 288 290 292 295 298 300 305 305 303 296 299 275 239 216 241 245 237 231 214 237 215 186 216 235 241 256 275 283 282 290 305 310 314 322 334 113 165
276 276 278 281 283 285 282 280 281 283 286 291 295 298 305 310 313 287 66 79 44 319 270 261 242 216 215 224 203 213 241 267 273 279 280 276 288 283 288 279 295 297 308 305 253
272 271 273 275 278 281 280 278 276 278 282 288 292 294 304 305 286 255 265 324 323 296 254 232 204 185 214 202 239 257 269 261 265 265 267 269 272 276 264 271 285 286 287 296 291
267 268 269 271 273 276 276 276 274 276 282 287 289 291 299 274 257 267 281 283 297 281 236 196 197 191 214 234 251 226 254 260 263 264 266 273 269 269 274 288 290 288 285 283 283
259 262 262 264 268 271 271 272 274 276 282 287 287 288 282 255 285 227 221 264 286 221 207 196 202 237 277 250 233 264 275 284 282 269 266 264 266 282 290 297 295 294 286 282 282
246 251 253 256 265 266 266 271 275 276 280 281 280 278 261 256 260 213 196 244 266 267 243 240 286 277 312 301 274 265 292 302 240 273 280 311 282 265 292 294 291 289 283 278 276
239 243 245 251 257 262 265 271 274 276 277 276 266 248 256 279 269 226 234 244 244 258 257 259 285 289 244 293 332 345 316 301 269 307 289 120 284 292 295 286 280 278 276 279 285
225 228 237 242 248 256 262 269 276 272 274 255 245 226 263 244 243 226 214 240 235 235 246 258 263 271 280 74 7 321 266 285 298 243 265 190 278 288 307 301 296 281 280 277 281
219 228 233 238 235 244 262 280 279 268 241 226 208 231 252 232 204 209 189 209 231 249 235 233 239 246 17 106 229 227 239 260 239 265 264 287 276 268 281 288 285 288 283 283 286
222 228 236 238 230 244 267 269 266 249 207 197 201 212 205 298 295 243 211 198 210 227 164 190 146 223 227 211 221 237 273 273 275 274 253 257 273 284 284 287 290 292 293 291 286
220 234 235 232 228 239 241 224 216 259 284 244 233 245 251 275 294 251 228 194 184 211 165 39 223 229 230 232 226 235 253 268 281 270 256 293 284 282 271 260 270 276 283 284 282
220 213 225 244 248 241 218 228 229 260 269 272 227 231 235 227 228 272 189 192 159 196 214 211 238 230 222 245 250 243 233 236 273 292 269 279 285 286 278 283 283 283 295 337 337
204 218 233 242 227 193 209 216 248 256 292 250 199 226 189 191 238 217 193 166 207 210 219 235 239 238 245 231 234 252 253 287 280 309 292 122 289 302 287 296 295 290 18 8 3
204 229 235 201 169 183 182 202 229 160 237 156 154 168 171 171 123 188 191 189 185 212 169 240 291 282 277 231 213 245 211 258 289 270 320 284 248 303 347 3 8 3 360 352 9
207 215 201 200 192 177 177 213 176 185 237 174 139 172 145 203 230 161 168 217 207 214 202 238 237 217 241 271 239 296 22 338 279 216 277 279 207 354 45 357 4 346 343 348 6
214 208 188 186 163 183 183 160 139 224 151 142 170 169 184 203 203 167 178 190 252 214 277 303 270 261 241 265 251 181 75 325 320 340 237 317 331 266 318 323 332 334 330 346 360
205 204 191 189 183 184 174 147 221 181 16 14 83 99 148 102 127 191 89 104 21 39 343 280 327 18 353 253 213 187 161 169 243 241 287 311 264 1 341 319 306 309 356 357 342
185 174 186 195 191 196 159 196 303 30 356 348 65 112 120 98 66 71 60 56 53 27 68 0 262 324 42 340 211 212 152 214 253 269 286 246 106 183 338 323 25 342 22 12 339
164 137 154 153 187 180 148 255 113 41 346 333 72 27 96 33 66 52 39 25 75 38 15 352 297 339 311 327 23 354 50 290 357 279 250 258 269 236 322 324 348 358 8 6 356
126 104 158 150 151 207 200 211 93 47 76 32 53 74 77 92 76 62 54 100 74 21 63 2 170 305 9 15 358 345 336 333 281 174 245 288 256 214 240 240 287 48 22 11 8
123 101 161 152 149 228 227 19 108 95 66 63 57 61 65 63 72 94 85 49 37 77 55 346 273 287 271 288 277 277 346 32 278 327 298 260 269 198 237 350 76 40 24 17 22
140 140 162 184 168 184 53 80 57 43 37 47 71 49 45 69 82 62 61 63 50 63 138 350 349 334 324 338 18 62 358 341 306 252 225 259 287 216 99 80 63 42 17 18 18
167 91 161 213 246 138 114 80 104 44 44 36 78 57 60 54 51 1 33 15 17 6 125 137 194 193 244 278 290 298 303 300 299 287 319 286 301 318 130 109 71 59 27 18 17
155 182 156 212 345 85 100 125 120 99 62 46 31 78 78 44 353 30 23 350 357 27 40 87 242 180 282 280 282 276 281 276 260 265 258 302 305 1 109 94 71 53 39 24 17
110 106 109 92 109 81 36 63 156 107 102 62 109 59 60 86 89 271 349 228 231 319 88 359 213 348 297 290 273 270 281 258 259 262 265 279 261 57 50 62 54 36 38 36 22
111 99 69 32 83 88 189 112 105 97 68 62 60 92 46 145 287 280 262 234 228 231 206 184 177 123 270 292 311 279 246 229 242 287 274 246 121 156 104 63 28 24 35 37 31